St. Marys, AK

7:01 AM AKST on November 18, 2019 (GMT -0900)
Saint Mary's

Weather History for PASM - October, 2019

Change the Weather History Date:

Wednesday, October 23, 2019

  Actual Average Record
Temperature  
Mean Temperature 32 °F -  
Max Temperature 30 °F 27 °F 41 °F (2002)
Min Temperature 30 °F 19 °F 8 °F (1999)
Degree Days  
Heating Degree Days 33    
Moisture  
Dew Point 30 °F    
Average Humidity 90    
Maximum Humidity 93    
Minimum Humidity 82    
Precipitation  
Precipitation 0.02 in - - ()
Sea Level Pressure  
Sea Level Pressure 29.23 in    
Wind  
Wind Speed 16 mph ()    
Max Wind Speed 23 mph    
Max Gust Speed 30 mph    
Visibility 6.5 miles    
Events Snow    
Averages and records for this station are not official NWS values.
T = Trace of Precipitation, MM = Missing Value Source: Averaged Metar Reports

Daily Weather History Graph

Daily Weather History Graph

Search for Another Location

Airport or City:

Astronomy

Oct. 23, 2019 Rise Set
Actual Time 9:59 AM AKDT 7:14 PM AKDT
Civil Twilight 9:13 AM AKDT 8:00 PM AKDT
Nautical Twilight 8:21 AM AKDT 8:52 PM AKDT
Astronomical Twilight 7:29 AM AKDT 9:43 PM AKDT
Moon 2:22 AM AKDT (10/23) 7:03 PM AKDT (10/23)
Length of Visible Light 10h 47m
Length of Day
9h 14m
Waning Crescent, 25% of the Moon is Illuminated
Oct 23
Waning Crescent
Oct 27
New
Nov 4
First Quarter
Nov 12
Full
Nov 19
Last Quarter

Hourly Weather History & Observations

Time (AKDT) Temp. Windchill Dew Point Humidity Pressure Visibility Wind Dir Wind Speed Gust Speed Precip Events Conditions
12:02 AM 34.0 °F 23.8 °F 32.0 °F 92% 29.51 in 10.0 mi NE 16.1 mph 23.0 mph N/A   Partly Cloudy
1:02 AM 33.1 °F 23.0 °F 30.9 °F 92% 29.46 in 10.0 mi NE 15.0 mph 20.7 mph N/A   Clear
2:02 AM 33.1 °F 23.9 °F 30.9 °F 92% 29.43 in 10.0 mi NNE 12.7 mph - N/A   Clear
3:02 AM 33.1 °F 23.0 °F 30.0 °F 89% 29.39 in 10.0 mi NE 15.0 mph 21.9 mph N/A   Partly Cloudy
4:02 AM 33.1 °F 22.6 °F 30.0 °F 89% 29.34 in 10.0 mi NNE 16.1 mph 24.2 mph N/A   Clear
5:02 AM 34.0 °F 23.4 °F 30.0 °F 85% 29.29 in 10.0 mi NNE 17.3 mph 24.2 mph N/A   Overcast
6:02 AM 33.1 °F 21.9 °F 30.0 °F 89% 29.26 in 10.0 mi NNE 18.4 mph 26.5 mph N/A   Overcast
7:02 AM 33.1 °F 21.9 °F 30.0 °F 89% 29.22 in 10.0 mi NNE 18.4 mph 26.5 mph N/A   Scattered Clouds
8:02 AM 33.1 °F 22.2 °F 30.0 °F 89% 29.18 in 10.0 mi NNE 17.3 mph 24.2 mph N/A   Clear
9:02 AM 34.0 °F 23.4 °F 28.9 °F 82% 29.18 in 10.0 mi NNE 17.3 mph 23.0 mph N/A   Mostly Cloudy
10:02 AM 34.0 °F 23.0 °F 30.0 °F 85% 29.17 in 10.0 mi North 18.4 mph 23.0 mph N/A   Overcast
11:02 AM 34.0 °F 22.1 °F 30.0 °F 85% 29.16 in 10.0 mi North 21.9 mph 28.8 mph N/A   Overcast
12:02 PM 34.0 °F 22.4 °F 30.0 °F 85% 29.17 in 10.0 mi North 20.7 mph 28.8 mph 0.00 in Snow Light Snow
12:20 PM 33.8 °F 23.2 °F 30.2 °F 87% 29.14 in 1.8 mi North 17.3 mph 28.8 mph 0.00 in Snow Light Snow
12:26 PM 33.8 °F 22.5 °F 30.2 °F 87% 29.14 in 1.0 mi North 19.6 mph 28.8 mph 0.00 in Snow Light Snow
12:36 PM 32.0 °F 20.5 °F 30.2 °F 93% 29.14 in 1.5 mi North 18.4 mph 25.3 mph 0.00 in Snow Light Snow
12:47 PM 32.0 °F 20.8 °F 30.2 °F 93% 29.15 in 1.2 mi North 17.3 mph 24.2 mph 0.00 in Snow Light Snow
1:02 PM 32.0 °F 19.8 °F 30.2 °F 93% 29.15 in 1.2 mi North 20.7 mph 25.3 mph 0.00 in Snow Light Snow
1:34 PM 32.0 °F 20.1 °F 30.2 °F 93% 29.15 in 2.5 mi North 19.6 mph 28.8 mph 0.00 in Snow Light Snow
1:55 PM 32.0 °F 20.1 °F 30.2 °F 93% 29.15 in 4.0 mi North 19.6 mph 28.8 mph 0.01 in Snow Light Snow
2:02 PM 32.0 °F 19.8 °F 30.2 °F 93% 29.15 in 1.8 mi North 20.7 mph 28.8 mph 0.01 in Snow Light Snow
2:15 PM 32.0 °F 19.5 °F 30.2 °F 93% 29.15 in 1.0 mi North 21.9 mph 29.9 mph 0.01 in Snow Light Snow
2:22 PM 32.0 °F 19.8 °F 30.2 °F 93% 29.15 in 1.0 mi North 20.7 mph 29.9 mph 0.01 in Snow Light Snow
2:33 PM 32.0 °F 19.8 °F 30.2 °F 93% 29.15 in 1.5 mi North 20.7 mph 26.5 mph 0.01 in Snow Light Snow
2:46 PM 32.0 °F 19.8 °F 30.0 °F 92% 29.18 in 1.8 mi North 20.7 mph 27.6 mph 0.01 in Snow Light Snow
3:02 PM 32.0 °F 20.5 °F 30.0 °F 92% 29.18 in 1.2 mi North 18.4 mph 27.6 mph 0.00 in Snow Light Snow
3:18 PM 32.0 °F 19.5 °F 30.2 °F 93% 29.16 in 3.0 mi North 21.9 mph 27.6 mph 0.00 in Snow Light Snow
3:40 PM 33.8 °F 22.5 °F 30.2 °F 87% 29.16 in 9.0 mi North 19.6 mph 25.3 mph 0.00 in   Overcast
4:02 PM 33.1 °F 22.2 °F 30.0 °F 89% 29.19 in 10.0 mi North 17.3 mph 27.6 mph 0.01 in   Overcast
5:02 PM 33.1 °F 20.6 °F 28.9 °F 85% 29.19 in 10.0 mi North 23.0 mph 28.8 mph N/A   Scattered Clouds
6:02 PM 30.9 °F 18.4 °F 28.9 °F 92% 29.20 in 10.0 mi North 20.7 mph - N/A   Clear
7:02 PM 30.9 °F 18.7 °F 28.9 °F 92% 29.23 in 10.0 mi North 19.6 mph 28.8 mph N/A   Scattered Clouds
9:02 PM 30.9 °F 19.8 °F 28.0 °F 89% 29.28 in 10.0 mi North 16.1 mph - N/A   Overcast
10:02 PM 30.9 °F 20.2 °F 28.0 °F 89% 29.30 in 10.0 mi North 15.0 mph - N/A   Overcast
10:26 PM 30.2 °F 21.3 °F 28.4 °F 93% 29.29 in 9.0 mi North 10.4 mph - 0.00 in Snow Light Snow
10:35 PM 30.2 °F 21.3 °F 28.4 °F 93% 29.29 in 8.0 mi North 10.4 mph - 0.00 in Snow Light Snow
10:41 PM 30.2 °F 21.9 °F 28.4 °F 93% 29.29 in 6.0 mi NNW 9.2 mph - 0.00 in Snow Light Snow
11:02 PM 30.0 °F 19.5 °F 28.0 °F 92% 29.33 in 4.0 mi North 13.8 mph - 0.00 in Snow Light Snow
11:15 PM 30.2 °F 19.8 °F 28.4 °F 93% 29.30 in 5.0 mi NNW 13.8 mph - 0.00 in Snow Light Snow
11:36 PM 30.2 °F 19.3 °F 28.4 °F 93% 29.31 in 6.0 mi North 15.0 mph - 0.00 in Snow Light Snow